Vorticity
23 17 4 7 8 9 7 6 10 6 7 5 5 3 4 7 4 5 7 7 5 3 5 9 9 2 3 2 -0 4 6 5 7 5 10 8 6 4 6 3 1 2 1 4 6 4 8 8 9
21 16 6 7 7 9 14 1 5 4 4 3 5 5 7 5 9 9 6 8 11 13 15 11 2 2 3 2 1 8 6 6 6 6 9 7 5 4 6 2 1 -0 2 7 7 7 7 7 7
15 15 5 8 7 7 -0 2 6 6 7 5 7 7 8 8 8 6 4 2 5 5 4 1 14 13 5 3 5 8 7 7 6 9 8 5 3 7 3 0 -1 3 3 17 15 11 6 6 7
13 14 9 10 8 4 3 6 3 7 8 7 5 11 8 8 8 8 5 2 6 6 6 15 16 12 9 7 11 7 5 7 9 7 6 6 9 5 2 1 1 3 8 8 9 6 8 11 10
10 15 11 10 9 4 6 8 3 5 7 6 4 8 10 9 6 4 6 8 8 1 4 16 6 12 13 11 9 8 9 9 7 8 10 8 6 3 1 -0 4 2 9 7 5 5 5 6 6
13 11 10 9 11 7 4 7 2 5 7 6 6 6 10 10 6 7 6 8 6 5 10 10 9 11 15 10 7 9 9 8 9 9 6 4 2 0 0 4 5 8 9 5 5 5 5 5 5
13 12 11 10 10 8 4 7 5 6 6 7 8 10 7 8 5 10 2 6 10 8 9 11 10 7 9 10 9 9 8 7 5 3 5 4 4 6 6 7 6 12 5 4 4 4 6 5 3
12 9 14 10 7 5 5 8 6 7 7 6 7 14 7 9 10 9 9 1 9 7 14 8 8 6 6 6 5 5 5 5 5 6 8 7 8 9 14 12 9 5 3 4 4 5 5 2 2
3 8 7 7 8 5 4 5 8 8 7 6 11 13 7 6 3 9 3 3 22 9 8 9 6 4 4 5 5 5 5 5 7 8 6 9 9 8 8 8 5 3 3 4 4 5 2 3 4
9 5 3 6 7 8 7 2 10 4 5 8 8 15 9 11 10 7 5 9 10 12 3 4 6 3 3 2 3 4 5 6 8 6 6 5 7 7 7 6 3 3 3 3 6 3 2 4 5
5 7 9 7 7 9 9 5 6 5 6 6 12 11 6 5 2 2 8 7 11 10 11 8 4 5 3 2 3 4 5 7 6 7 6 5 6 5 6 5 3 3 3 6 4 2 3 5 6
5 6 8 7 9 9 8 6 4 6 4 8 13 11 5 6 10 4 1 3 5 5 3 4 3 6 5 4 4 4 4 6 8 5 6 6 7 7 6 3 3 3 5 6 3 3 4 6 5
4 7 6 8 10 10 10 11 7 8 10 9 9 10 6 6 5 5 3 0 4 9 11 4 5 8 8 6 4 4 5 6 7 5 5 7 7 6 4 3 4 5 6 5 3 3 4 5 4
7 5 7 7 8 8 6 7 6 8 5 7 8 5 8 8 6 3 5 4 2 5 11 7 6 8 5 6 6 6 5 6 6 6 6 6 6 5 5 4 3 5 6 5 3 3 4 4 1
10 10 11 9 9 8 9 5 7 5 6 6 7 7 4 10 11 10 6 4 5 8 8 6 4 7 7 7 5 6 7 7 7 7 7 8 7 6 4 3 3 4 5 5 4 4 3 2 1
9 7 10 11 9 10 2 8 9 7 5 5 7 7 7 5 6 11 10 9 9 7 6 7 7 7 6 5 5 6 6 5 7 7 7 6 6 6 7 7 5 4 5 5 4 4 5 4 0
5 5 4 0 4 3 2 5 7 10 8 8 9 6 5 6 7 9 10 11 7 7 7 7 6 7 6 8 7 5 5 5 5 6 7 6 6 7 7 6 4 4 5 5 5 4 4 3 6
10 5 1 2 -1 6 5 4 4 6 6 8 6 6 7 4 4 8 9 10 8 8 5 7 4 7 7 9 14 8 9 7 7 6 6 6 6 7 7 7 6 4 5 6 5 4 4 1 3
4 4 3 3 6 4 3 1 1 4 5 6 6 8 6 4 4 6 5 9 10 8 5 3 5 6 5 6 8 9 7 5 5 4 6 7 7 8 8 8 7 5 7 5 5 6 2 2 5
7 6 5 3 -3 6 5 9 -1 2 6 5 6 7 6 8 9 8 8 9 9 9 6 4 6 5 3 5 8 7 6 7 4 6 7 7 5 4 2 5 3 -0 6 6 4 2 6 8 12
9 7 9 7 -2 5 2 15 -5 1 1 0 9 8 8 7 6 8 9 10 9 8 9 8 7 4 3 2 5 4 3 5 7 7 3 5 7 5 16 8 16 14 20 10 1 8 8 20 14
6 10 9 6 7 5 5 15 -5 7 8 7 1 4 12 11 10 9 8 8 8 9 7 7 6 8 8 8 5 6 4 4 8 2 6 6 1 9 5 13 7 10 13 14 33 33 17 12 13
7 -3 4 5 3 10 6 16 2 5 4 3 6 7 8 14 15 9 15 11 13 14 11 8 4 2 3 6 4 5 4 1 1 0 2 6 10 12 8 4 30 20 16 13 -5 14 22 -3 1
9 4 10 14 13 11 3 23 17 8 11 9 2 7 10 7 12 12 15 9 14 11 14 19 18 16 9 9 7 8 3 3 6 1 5 1 8 4 3 6 15 15 1 8 34 -1 18 -2 15
3 4 7 4 2 3 5 13 12 13 11 14 11 13 17 26 21 25 13 13 9 9 9 8 5 7 10 12 8 11 6 6 7 6 3 2 14 1 5 9 16 4 2 5 16 27 -14 13 25
10 7 7 -3 8 5 18 2 4 9 4 7 9 12 11 12 18 10 10 11 15 12 11 10 11 11 12 18 14 10 0 8 4 1 8 3 2 4 3 9 -6 -3 6 11 4 11 8 19 19
14 -3 16 28 19 25 17 8 10 2 12 -3 9 18 10 4 7 12 21 18 13 10 6 7 7 9 9 10 8 11 9 7 5 5 -3 12 4 4 14 5 4 4 7 5 12 12 23 1 12
-3 20 3 -13 -11 -5 5 9 -1 15 24 22 11 14 14 10 4 7 3 9 22 12 6 8 14 10 9 6 5 7 9 8 7 -4 6 4 10 11 3 -0 8 12 -2 32 6 14 8 15 12
14 11 5 19 5 9 0 -6 13 9 5 8 4 9 13 2 -3 -2 3 0 10 5 9 9 8 7 9 3 4 6 9 6 5 8 7 4 4 17 -8 17 10 12 17 14 30 3 21 11 5
8 8 37 5 15 7 13 9 7 4 10 8 9 10 8 11 8 5 3 6 2 9 1 4 4 7 8 11 13 11 10 12 8 7 8 14 17 8 -6 1 12 58 46 21 -24 19 12 7 2
Height
5840 5839 5840 5841 5843 5844 5843 5841 5841 5838 5838 5839 5838 5839 5840 5842 5841 5841 5839 5839 5840 5841 5843 5843 5843 5843 5842 5842 5842 5842 5842 5842 5843 5843 5842 5842 5844 5844 5844 5845 5845 5845 5844 5843 5842 5842 5841 5840 5840
5833 5833 5833 5834 5837 5838 5837 5833 5835 5834 5832 5833 5834 5836 5836 5837 5836 5836 5835 5836 5837 5837 5838 5838 5839 5839 5839 5838 5838 5837 5837 5838 5838 5839 5839 5839 5840 5841 5841 5842 5841 5841 5841 5840 5839 5838 5838 5837 5837
5826 5827 5827 5828 5831 5833 5830 5828 5830 5828 5827 5828 5830 5832 5832 5833 5832 5831 5830 5832 5833 5831 5832 5834 5833 5833 5834 5833 5833 5833 5833 5834 5835 5835 5836 5836 5837 5838 5838 5838 5838 5837 5836 5835 5835 5835 5835 5834 5834
5817 5820 5821 5823 5826 5826 5823 5823 5825 5822 5821 5823 5826 5828 5829 5827 5828 5827 5826 5827 5828 5827 5826 5827 5826 5827 5828 5828 5828 5829 5830 5830 5832 5832 5833 5833 5834 5834 5834 5835 5835 5834 5833 5832 5832 5832 5832 5832 5832
5813 5813 5813 5818 5820 5820 5818 5818 5817 5817 5815 5818 5822 5824 5824 5823 5824 5823 5822 5823 5822 5821 5821 5821 5821 5822 5822 5822 5822 5823 5824 5826 5828 5829 5830 5831 5831 5831 5831 5830 5831 5831 5830 5829 5829 5829 5829 5829 5829
5808 5807 5808 5811 5815 5814 5813 5812 5811 5811 5811 5813 5817 5819 5820 5818 5819 5818 5818 5818 5817 5816 5816 5817 5816 5817 5818 5818 5817 5818 5819 5821 5824 5825 5826 5827 5828 5827 5826 5826 5826 5826 5826 5826 5826 5826 5826 5826 5825
5804 5803 5803 5806 5810 5810 5807 5807 5806 5806 5807 5808 5812 5814 5814 5813 5814 5814 5814 5814 5813 5812 5812 5812 5811 5811 5812 5813 5813 5814 5816 5818 5820 5821 5822 5822 5822 5822 5822 5822 5823 5822 5822 5823 5823 5823 5823 5822 5822
5800 5799 5801 5803 5804 5805 5801 5802 5800 5800 5802 5804 5806 5809 5807 5807 5809 5810 5810 5810 5809 5808 5808 5808 5807 5807 5808 5808 5809 5810 5811 5813 5815 5816 5817 5817 5817 5817 5817 5818 5818 5818 5818 5818 5819 5819 5819 5819 5818
5795 5796 5798 5799 5798 5797 5797 5797 5796 5795 5796 5799 5801 5803 5803 5802 5803 5804 5805 5806 5805 5804 5803 5803 5803 5803 5803 5804 5805 5805 5807 5808 5809 5810 5811 5811 5812 5812 5812 5812 5813 5813 5814 5814 5814 5815 5815 5814 5814
5790 5791 5795 5792 5792 5791 5792 5793 5791 5791 5791 5794 5797 5796 5797 5798 5799 5799 5800 5799 5800 5798 5798 5798 5797 5798 5798 5800 5801 5802 5803 5803 5804 5804 5804 5804 5806 5806 5807 5808 5808 5809 5809 5810 5810 5811 5811 5810 5809
5784 5788 5787 5787 5786 5784 5787 5787 5786 5787 5788 5789 5790 5789 5790 5792 5793 5794 5793 5793 5793 5792 5792 5792 5792 5792 5793 5794 5795 5796 5797 5798 5799 5800 5799 5799 5799 5800 5802 5803 5803 5804 5805 5804 5805 5806 5806 5805 5804
5777 5782 5781 5781 5780 5780 5783 5780 5781 5780 5784 5782 5782 5782 5783 5784 5786 5786 5786 5786 5787 5787 5787 5786 5786 5787 5787 5787 5788 5790 5790 5792 5793 5794 5794 5794 5794 5795 5796 5797 5798 5798 5798 5799 5800 5799 5799 5798 5798
5771 5774 5773 5775 5775 5774 5773 5775 5773 5776 5778 5775 5775 5776 5776 5777 5778 5778 5778 5779 5780 5781 5782 5781 5780 5781 5782 5782 5783 5784 5785 5786 5787 5786 5788 5788 5789 5790 5790 5791 5792 5792 5792 5792 5793 5793 5793 5791 5791
5764 5764 5767 5766 5769 5768 5765 5766 5763 5774 5767 5767 5768 5770 5770 5771 5771 5770 5771 5772 5772 5772 5773 5773 5773 5774 5775 5776 5777 5778 5778 5780 5780 5781 5782 5782 5782 5782 5783 5784 5785 5785 5785 5785 5786 5785 5785 5784 5784
5758 5755 5759 5761 5760 5761 5758 5757 5759 5762 5759 5762 5760 5761 5761 5763 5764 5766 5764 5764 5764 5766 5765 5766 5766 5767 5768 5769 5770 5771 5773 5774 5774 5775 5775 5776 5776 5777 5777 5777 5778 5779 5778 5778 5777 5777 5777 5777 5776
5748 5747 5753 5755 5753 5752 5750 5750 5752 5754 5753 5753 5753 5752 5753 5755 5757 5758 5759 5758 5758 5759 5758 5757 5759 5759 5760 5763 5763 5765 5766 5766 5767 5767 5767 5768 5768 5769 5770 5770 5770 5771 5771 5770 5770 5769 5769 5768 5767
5739 5744 5742 5742 5744 5743 5742 5746 5746 5747 5745 5743 5744 5744 5744 5746 5749 5751 5750 5749 5750 5750 5751 5751 5751 5752 5753 5755 5756 5757 5757 5757 5759 5759 5760 5760 5761 5761 5761 5762 5762 5762 5762 5762 5761 5760 5760 5759 5758
5734 5730 5729 5732 5736 5737 5734 5736 5735 5735 5737 5734 5733 5735 5735 5737 5740 5742 5740 5740 5741 5742 5744 5743 5744 5745 5747 5748 5748 5748 5749 5749 5750 5750 5751 5751 5752 5753 5753 5753 5753 5753 5752 5752 5751 5751 5750 5749 5749
5721 5720 5720 5721 5722 5725 5725 5728 5727 5723 5724 5726 5726 5725 5725 5727 5730 5729 5731 5731 5732 5733 5736 5735 5736 5737 5737 5738 5738 5739 5740 5740 5740 5741 5743 5744 5744 5744 5744 5744 5743 5743 5742 5742 5741 5740 5740 5739 5739
5708 5709 5708 5710 5711 5709 5712 5712 5716 5715 5713 5717 5718 5719 5719 5717 5717 5718 5720 5721 5722 5722 5723 5724 5726 5727 5727 5728 5728 5728 5729 5730 5730 5732 5733 5734 5735 5735 5734 5733 5732 5732 5731 5730 5729 5728 5728 5728 5728
5695 5695 5700 5700 5695 5694 5692 5695 5706 5706 5702 5704 5706 5708 5709 5709 5707 5706 5706 5709 5709 5710 5712 5714 5715 5716 5717 5717 5717 5718 5719 5720 5722 5722 5723 5724 5725 5724 5723 5722 5721 5721 5720 5718 5717 5716 5716 5718 5719
5681 5692 5686 5683 5680 5680 5681 5674 5691 5691 5690 5693 5694 5695 5695 5695 5695 5695 5694 5696 5699 5700 5698 5700 5701 5703 5705 5706 5708 5709 5710 5711 5711 5711 5712 5714 5714 5713 5713 5712 5710 5709 5709 5709 5708 5706 5707 5708 5709
5668 5667 5666 5665 5663 5663 5671 5655 5677 5681 5678 5676 5679 5680 5683 5684 5683 5681 5682 5684 5686 5685 5688 5688 5688 5690 5693 5696 5698 5699 5699 5700 5700 5701 5702 5704 5703 5702 5702 5700 5698 5699 5699 5699 5699 5698 5698 5699 5698
5657 5651 5648 5648 5648 5640 5663 5645 5660 5671 5667 5662 5661 5661 5668 5668 5668 5667 5668 5670 5670 5672 5674 5676 5678 5680 5682 5684 5687 5689 5689 5689 5689 5690 5692 5694 5693 5693 5692 5690 5689 5689 5689 5689 5688 5686 5688 5688 5686
5636 5635 5631 5633 5628 5625 5647 5626 5646 5657 5649 5649 5649 5647 5648 5651 5651 5652 5652 5654 5656 5658 5660 5662 5665 5667 5668 5670 5673 5676 5678 5678 5678 5678 5680 5681 5681 5681 5679 5680 5680 5679 5678 5677 5676 5678 5678 5677 5678
5618 5618 5615 5610 5609 5614 5623 5611 5631 5638 5638 5636 5636 5634 5633 5633 5636 5637 5638 5639 5641 5643 5646 5648 5651 5653 5655 5658 5660 5663 5662 5665 5666 5665 5666 5668 5668 5668 5667 5667 5667 5666 5666 5666 5667 5667 5667 5666 5666
5606 5594 5611 5600 5596 5592 5601 5604 5611 5619 5622 5621 5621 5621 5620 5620 5621 5623 5624 5626 5628 5630 5632 5634 5636 5639 5642 5644 5646 5649 5650 5653 5653 5653 5652 5653 5654 5656 5656 5654 5653 5653 5653 5653 5652 5653 5653 5653 5652
5582 5587 5585 5583 5580 5579 5581 5589 5594 5600 5604 5605 5605 5607 5607 5607 5608 5610 5611 5614 5616 5618 5619 5622 5624 5625 5628 5630 5632 5635 5636 5638 5638 5638 5639 5640 5641 5642 5642 5640 5638 5637 5637 5636 5636 5637 5640 5640 5644
5567 5566 5564 5567 5563 5563 5568 5571 5583 5580 5586 5589 5589 5591 5593 5593 5593 5595 5597 5600 5603 5605 5608 5609 5610 5612 5615 5615 5618 5620 5622 5622 5623 5625 5624 5626 5627 5626 5626 5626 5624 5622 5621 5621 5624 5626 5628 5630 5633
5553 5549 5548 5545 5547 5546 5550 5553 5565 5565 5569 5570 5571 5573 5574 5576 5576 5577 5579 5582 5586 5591 5593 5596 5599 5600 5602 5603 5604 5606 5607 5609 5609 5610 5610 5612 5613 5612 5611 5607 5607 5607 5605 5610 5613 5613 5617 5619 5620